千帆星座-130(QIANFAN-130)

导读

QIANFAN-130(NORAD编号69075)是中国千帆星座(G60星链)的低轨宽带通信卫星,由上海垣信卫星科技主导建设,属于G60科创走廊战略布局的一部分。千帆星座是中国大型低轨卫星互联网项目,总规划部署超1.5万颗卫星,旨在构建覆盖全球的高速宽带网络,服务通信、物联网、应急等领域。QIANFAN系列卫星批量发射组网,QIANFAN-130目前在轨运行,作为一期组网建设的组成部分,推进区域覆盖目标实现,推动全球低轨互联网星座建设进程,助力自主可控天基通信网络构建。

基本信息
目录编号:
69075
目录名称:
QIANFAN-129
国际标识:
2026-104C
轨道中心:
EARTH
卫星名称:
千帆星座-130
卫星全名:
千帆星座-130(QIANFAN-130)
卫星状态:
在轨 (已飞行122 天)
发射日期:
2026-05-12 UTC
国别 :
中国 (CN)
星等 :
--
该卫星已列入 空间交会检测服务 Space Conjunction Data Service (SCDS) ,当前飞行风险评估等级: 无高风险
轨道信息
数据来源 国际轨道数据 AOE轨道数据
星历时间 2026-09-11T13:35:56+0800
7小时前
查看轨道信息
2026-09-11T01:00:00+0800
20小时前
查看轨道信息
半长轴 7446.638km 7446.639km
偏心率 0.0002245 0.0002329
轨道倾角 88.991° 88.992°
近地点辐角 110.790° 110.840°
升交点赤经 332.657° 332.711°
平近点角 249.349° 217.605°
近地点 1066.829km 1066.767km
远地点 1070.173km 1070.237km
周期 106.586分钟 106.586分钟
每日圈数 13.510222 13.510218
详细信息
卫星平台:
130
覆盖范围:
全球
运营商:
上海垣信卫星科技有限公司
运营商所在国:
中国
使用方式:
暂无
卫星简介
千帆星座,也被称为“G60星链”计划,是中国版“星链”的重要组成部分,旨在打造一个由1.4万多颗低轨宽频多媒体卫星构成的庞大星座。千帆星座计划由上海垣信卫星科技有限公司负责实施,于2023年启动建设。该项目是我国第二个低轨卫星大星座,旨在通过构建庞大的卫星网络,为全球用户提供高质量的通信和宽带互联网服务。
2D轨道图
3D轨道图
轨道高度分析图
轨道倾角分析图
轨道综合分析图
查看轨道综合分析图
与全量物体交会距离演化趋势
与全量物体交会风险概率演化趋势